Total_Precipitation_Accumulation
0.01 0.01 0.01 0.02 0.03 0.04 0.08 0.13 0.25 0.30 0.23 0.33 0.43 0.64 0.74 0.85 1.04 1.04 0.90 0.95 1.25 1.45 1.73 2.19 2.74 3.59 4.67 5.57 5.85 5.36 4.88 4.55 4.14 3.75 3.17 2.82 2.80 2.72 2.42 2.13 1.86 1.80 1.75 1.84
0.01 0.02 0.02 0.02 0.03 0.05 0.09 0.14 0.24 0.29 0.21 0.26 0.42 0.74 1.05 1.03 0.96 0.91 0.97 0.98 1.07 1.44 1.89 2.61 3.64 4.22 4.46 4.59 4.36 4.03 3.78 3.59 3.13 2.79 2.58 2.35 2.36 2.15 1.97 1.88 1.88 1.60 1.53 1.62
0.03 0.04 0.02 0.02 0.04 0.10 0.12 0.16 0.23 0.29 0.20 0.24 0.46 0.94 1.22 1.21 0.98 0.84 0.89 0.88 1.06 1.48 2.07 2.88 3.45 3.57 3.29 2.97 2.89 2.84 2.91 2.68 2.57 2.55 2.44 2.34 2.38 2.13 1.89 1.80 1.78 1.52 1.35 1.37
0.03 0.03 0.02 0.03 0.05 0.09 0.10 0.09 0.09 0.12 0.21 0.40 0.59 1.20 1.42 1.18 1.11 0.92 0.92 0.93 0.97 1.25 1.61 2.02 2.26 2.15 2.26 2.41 2.43 2.55 2.64 2.39 2.38 2.35 2.08 1.99 1.91 1.82 1.71 1.66 1.63 1.71 1.46 1.31
0.04 0.03 0.02 0.03 0.04 0.05 0.05 0.05 0.07 0.15 0.28 0.48 0.67 0.96 1.18 0.99 1.14 0.93 0.80 0.81 0.77 0.91 0.99 1.10 1.22 1.38 1.60 1.71 1.88 2.17 2.42 2.37 2.21 2.06 2.01 2.09 1.95 1.91 1.89 1.90 1.88 1.85 1.69 1.46
0.05 0.05 0.04 0.04 0.04 0.04 0.05 0.08 0.17 0.28 0.44 0.94 0.90 0.90 1.12 1.06 1.15 0.91 0.72 0.63 0.67 0.77 0.85 0.88 0.94 1.09 1.26 1.38 1.55 1.80 2.11 2.25 2.18 2.03 1.95 2.00 2.07 2.05 1.97 1.95 1.90 1.70 1.59 1.55
0.10 0.08 0.06 0.04 0.04 0.07 0.07 0.10 0.31 0.65 1.04 1.19 0.77 0.87 1.10 0.87 0.81 0.68 0.46 0.44 0.56 0.75 0.88 0.95 0.91 0.88 0.94 1.09 1.24 1.34 1.53 1.82 1.93 1.90 1.89 1.91 2.06 1.99 1.81 1.69 1.62 1.56 1.37 1.29
0.14 0.12 0.06 0.04 0.05 0.07 0.06 0.06 0.17 0.32 0.41 0.58 0.76 1.15 1.23 0.89 0.61 0.38 0.29 0.39 0.57 0.72 0.78 0.81 0.79 0.76 0.74 0.83 1.01 1.14 1.36 1.55 1.73 1.75 1.74 1.78 1.86 1.80 1.67 1.69 1.51 1.45 1.37 1.29
0.06 0.05 0.04 0.04 0.06 0.07 0.07 0.06 0.06 0.12 0.17 0.39 0.77 1.08 1.03 0.80 0.61 0.43 0.36 0.40 0.51 0.56 0.59 0.70 0.75 0.83 0.82 0.80 0.92 1.06 1.30 1.51 1.70 1.80 1.82 1.76 1.77 1.81 1.80 1.74 1.55 1.38 1.49 1.38
0.03 0.03 0.05 0.05 0.06 0.07 0.07 0.07 0.06 0.07 0.17 0.33 0.61 1.02 1.21 0.99 0.75 0.59 0.51 0.50 0.57 0.59 0.63 0.83 0.97 0.93 0.78 0.67 0.74 0.92 1.13 1.43 1.62 1.80 1.82 1.71 1.86 1.82 1.81 1.74 1.61 1.46 1.46 1.44
0.02 0.03 0.06 0.06 0.07 0.09 0.08 0.08 0.08 0.07 0.10 0.20 0.46 0.68 0.64 0.60 0.56 0.59 0.64 0.59 0.50 0.60 0.72 0.87 1.04 1.00 0.78 0.67 0.65 0.77 1.05 1.32 1.50 1.64 1.73 1.67 1.66 1.61 1.62 1.65 1.63 1.59 1.56 1.49
0.02 0.03 0.05 0.07 0.09 0.09 0.10 0.11 0.12 0.13 0.11 0.12 0.24 0.46 0.36 0.42 0.50 0.56 0.63 0.71 0.72 0.75 0.78 0.71 0.80 0.96 0.91 0.79 0.70 0.84 1.11 1.32 1.41 1.46 1.44 1.44 1.50 1.50 1.45 1.42 1.48 1.53 1.45 1.38
0.03 0.02 0.05 0.13 0.19 0.16 0.11 0.11 0.12 0.13 0.14 0.12 0.27 0.51 0.39 0.34 0.51 0.54 0.56 0.80 0.97 0.70 0.58 0.57 0.66 0.79 0.95 0.91 0.84 0.97 1.14 1.25 1.29 1.21 1.20 1.23 1.27 1.28 1.28 1.29 1.36 1.44 1.47 1.46
0.03 0.03 0.04 0.11 0.20 0.21 0.17 0.13 0.13 0.12 0.10 0.10 0.18 0.42 0.40 0.40 0.52 0.72 0.77 0.81 0.69 0.62 0.62 0.58 0.64 0.80 0.91 0.96 0.94 0.94 1.03 1.17 1.19 1.12 1.19 1.31 1.36 1.38 1.40 1.39 1.46 1.55 1.61 1.56
0.04 0.03 0.03 0.03 0.07 0.12 0.15 0.16 0.14 0.10 0.08 0.11 0.14 0.27 0.35 0.44 0.55 0.68 0.70 0.63 0.57 0.61 0.63 0.62 0.69 0.86 0.93 1.08 1.11 1.07 1.07 1.12 1.21 1.28 1.38 1.56 1.71 1.71 1.61 1.61 1.71 1.79 1.83 1.77
0.04 0.03 0.03 0.03 0.06 0.11 0.13 0.14 0.11 0.08 0.07 0.09 0.13 0.21 0.28 0.43 0.51 0.60 0.58 0.56 0.63 0.64 0.59 0.55 0.66 0.86 0.88 0.89 0.96 0.95 0.98 1.02 1.04 1.12 1.26 1.46 1.66 1.76 1.77 1.83 1.94 1.95 1.92 2.02
0.07 0.07 0.05 0.05 0.07 0.10 0.18 0.14 0.10 0.10 0.09 0.11 0.17 0.23 0.27 0.37 0.52 0.64 0.67 0.71 0.73 0.65 0.58 0.59 0.64 0.75 0.91 0.84 0.81 0.90 0.96 1.06 1.16 1.33 1.51 1.63 1.79 1.92 1.94 1.90 1.94 1.98 1.98 1.97
0.17 0.16 0.13 0.11 0.12 0.18 0.19 0.15 0.15 0.15 0.17 0.20 0.24 0.29 0.36 0.40 0.51 0.63 0.68 0.66 0.71 0.73 0.78 0.84 0.90 0.91 0.99 0.97 0.94 1.00 1.05 1.17 1.23 1.30 1.46 1.59 1.78 1.90 1.97 2.06 2.11 2.18 2.23 2.24
0.29 0.31 0.25 0.20 0.19 0.22 0.24 0.24 0.24 0.26 0.33 0.35 0.42 0.47 0.48 0.48 0.50 0.63 0.75 0.77 0.87 0.85 0.87 0.93 0.99 1.03 1.03 1.11 1.19 1.27 1.26 1.37 1.50 1.52 1.68 1.82 1.91 2.05 2.11 2.16 2.28 2.38 2.45 2.40
0.33 0.38 0.37 0.30 0.35 0.38 0.38 0.38 0.31 0.36 0.67 0.61 0.61 0.66 0.66 0.71 0.89 0.97 0.99 0.95 0.96 0.95 0.98 1.02 0.98 0.99 1.10 1.17 1.27 1.39 1.54 1.67 1.83 1.91 1.96 2.03 2.15 2.22 2.20 2.21 2.28 2.31 2.34 2.34
0.39 0.46 0.46 0.42 0.42 0.43 0.42 0.41 0.41 0.74 1.06 1.00 0.99 0.97 0.89 0.99 1.06 0.97 0.90 1.00 1.02 1.09 1.16 1.12 1.10 1.14 1.18 1.19 1.27 1.43 1.63 1.79 1.86 1.92 1.99 2.09 2.19 2.38 2.47 2.48 2.35 2.20 2.19 2.24
0.64 0.67 0.66 0.64 0.76 0.79 0.53 0.57 0.82 1.04 1.00 1.18 1.11 1.01 1.04 1.03 0.96 0.89 0.90 1.03 1.14 1.20 1.25 1.25 1.24 1.22 1.24 1.33 1.39 1.50 1.67 1.79 1.87 1.88 1.99 2.10 2.15 2.16 2.20 2.42 2.47 2.38 2.28 2.20
0.88 0.90 0.92 0.90 0.99 0.89 0.74 0.78 0.91 0.85 0.87 1.04 1.06 0.97 0.96 0.95 0.91 0.89 0.90 0.97 1.03 1.08 1.16 1.18 1.23 1.27 1.32 1.38 1.49 1.63 1.70 1.78 1.82 1.93 2.09 2.23 2.25 2.29 2.26 2.26 2.32 2.28 2.20 2.06
1.06 0.88 1.00 1.18 1.17 1.04 0.90 0.79 0.82 0.83 0.83 0.87 0.97 1.02 1.01 0.98 0.93 0.94 0.93 0.95 1.09 1.16 1.19 1.24 1.24 1.28 1.42 1.54 1.68 1.71 1.70 1.78 1.96 2.05 2.11 2.15 2.17 2.15 2.21 2.30 2.22 2.15 2.14 2.07
1.19 1.14 1.34 1.69 1.72 1.51 1.34 1.15 1.06 1.00 0.98 1.00 1.10 1.15 1.21 1.22 1.16 1.12 1.05 1.02 1.07 1.14 1.15 1.24 1.32 1.36 1.45 1.54 1.66 1.74 1.77 1.83 1.92 1.88 1.83 1.89 1.97 1.97 1.95 2.09 2.14 1.95 1.87 1.94
1.23 1.42 1.75 2.06 1.89 1.86 1.72 1.41 1.24 1.23 1.30 1.24 1.25 1.31 1.26 1.21 1.20 1.19 1.17 1.06 0.98 0.99 1.10 1.19 1.27 1.38 1.44 1.48 1.54 1.57 1.63 1.74 1.86 1.91 1.87 1.84 1.86 1.89 1.89 1.88 1.91 1.87 1.66 1.64